GW2918 Weather Reports


time (UTC)temp
F
wind
direction
speed
knots
gust
knots
rain 1hr
in
rain 24hr
in
rain mn
in
humidity
%
barometer
mb
20260508073119 33 85 1.7 4.3 0.02 0.02 0.02 99 1011.8
20260508072118 33 60 3.5 3.5 0.00 0.02 0.02 99 1011.8
20260508071113 32 85 2.6 3.5 0.00 0.02 0.02 99 1011.9
20260508070109 32 63 2.6 3.5 0.00 0.02 0.02 99 1012.0
20260508065110 33 77 1.7 4.3 0.00 0.02 0.02 99 1011.9
20260508064105 35 79 2.6 3.5 0.00 0.02 0.02 99 1011.9
20260508063100 35 83 2.6 4.3 0.00 0.02 0.02 99 1011.7
20260508062059 34 81 4.3 4.3 0.00 0.02 0.02 99 1011.9
20260508061055 35 83 1.7 3.5 0.00 0.02 0.02 99 1011.6
20260508060054 35 94 2.6 3.5 0.00 0.02 0.02 99 1011.6
20260508055053 35 87 2.6 3.5 0.00 0.02 0.02 99 1011.6
20260508054053 35 63 2.6 3.5 0.00 0.02 0.02 99 1011.6
20260508053047 36 87 2.6 3.5 0.00 0.02 0.02 99 1011.6
20260508052047 36 79 3.5 4.3 0.00 0.02 0.02 99 1011.7
20260508051044 35 93 3.5 4.3 0.00 0.02 0.02 99 1011.7
20260508050044 36 88 4.3 5.2 0.00 0.02 0.02 99 1011.5
20260508045043 37 84 2.6 3.5 0.00 0.02 0.02 99 1011.5
20260508044042 37 94 2.6 3.5 0.00 0.02 0.02 99 1011.6
20260508043037 37 91 2.6 3.5 0.00 0.02 0.02 99 1011.5
20260508042036 38 77 3.5 5.2 0.00 0.02 0.02 99 1012.0
20260508041035 38 70 2.6 5.2 0.09 0.02 0.02 99 1012.0
20260508040035 38 62 3.5 4.3 0.17 0.00 0.00 99 1012.3
20260508035035 38 119 0.9 3.5 0.05 0.16 0.16 99 1012.5
20260508034034 38 52 2.6 3.5 0.05 0.15 0.15 99 1012.4
20260508033030 38 102 1.7 2.6 0.12 0.14 0.14 98 1012.3
20260508032030 39 81 1.7 5.2 0.26 0.11 0.11 97 1011.8
20260508031028 40 23 2.6 7.8 0.33 0.07 0.07 96 1012.1
20260508030023 42 66 4.3 5.2 0.07 0.01 0.01 90 1011.8
20260508025022 44 357 1.7 5.2 0.00 0.00 0.00 79 1011.1
20260508024020 45 320 3.5 7.0 0.00 0.00 0.00 76 1010.7
20260508023015 46 11 1.7 4.3 0.00 0.00 0.00 70 1010.4
20260508022013 46 77 3.5 4.3 0.00 0.00 0.00 70 1010.5
20260508021010 46 41 1.7 3.5 0.00 0.00 0.00 67 1010.5
20260508020006 47 10 1.7 3.5 0.00 0.00 0.00 68 1010.3
20260508015000 47 57 3.5 5.2 0.00 0.00 0.00 67 1010.3
20260508013958 47 329 1.7 3.5 0.00 0.00 0.00 66 1010.1
20260508012958 47 333 1.7 2.6 0.00 0.00 0.00 66 1010.4
20260508011958 47 60 1.7 2.6 0.00 0.00 0.00 67 1009.9
20260508010953 47 340 0.9 2.6 0.00 0.00 0.00 65 1010.0
20260508005953 48 32 2.6 3.5 0.00 0.00 0.00 64 1009.8
20260508004952 48 69 2.6 3.5 0.00 0.00 0.00 68 1009.7
20260508003951 48 28 1.7 2.6 0.00 0.00 0.00 62 1009.8
20260508002951 48 34 1.7 2.6 0.00 0.00 0.00 61 1009.7
20260508001949 48 10 0.9 2.6 0.00 0.00 0.00 61 1009.3
20260508000948 49 29 1.7 2.6 0.00 0.00 0.00 59 1009.2
20260507235947 49 14 3.5 4.3 0.00 0.00 0.00 58 1009.3
20260507234942 50 333 2.6 4.3 0.00 0.00 0.00 58 1009.4
20260507233941 50 340 2.6 4.3 0.00 0.00 0.00 59 1009.4
20260507232936 50 18 1.7 4.3 0.00 0.00 0.00 57 1008.9
20260507231935 50 348 3.5 3.5 0.00 0.00 0.00 55 1009.1
20260507230934 51 2 3.5 4.3 0.00 0.00 0.00 54 1009.3
20260507225932 51 13 1.7 4.3 0.00 0.00 0.00 53 1008.8
20260507224930 51 32 2.6 5.2 0.00 0.00 0.00 54 1009.1
20260507223929 51 1 0.9 3.5 0.00 0.00 0.00 54 1008.9
20260507222928 51 0 2.6 3.5 0.00 0.00 0.00 56 1009.0
20260507221927 51 354 3.5 5.2 0.00 0.00 0.00 53 1008.9
20260507220926 51 350 1.7 4.3 0.00 0.00 0.00 56 1009.0
20260507215926 52 47 2.6 6.1 0.00 0.00 0.00 52 1009.0
20260507214926 52 43 3.5 4.3 0.00 0.00 0.00 53 1008.8
20260507213925 52 31 3.5 6.1 0.00 0.00 0.00 55 1009.1
20260507212925 52 29 7.8 8.7 0.00 0.00 0.00 56 1009.1
20260507211924 53 352 7.0 7.8 0.00 0.00 0.00 50 1008.8
20260507210923 54 346 4.3 5.2 0.00 0.00 0.00 49 1008.9
20260507205922 53 12 4.3 5.2 0.00 0.00 0.00 52 1008.9
20260507204921 54 11 2.6 3.5 0.00 0.00 0.00 57 1009.1
20260507203922 55 338 6.1 9.6 0.00 0.00 0.00 47 1009.1
20260507202921 53 6 7.0 8.7 0.00 0.00 0.00 49 1008.8
20260507201920 54 354 7.8 14.8 0.00 0.00 0.00 49 1009.0
20260507200918 53 255 1.7 2.6 0.00 0.00 0.00 52 1009.1
20260507195915 52 130 1.7 6.1 0.00 0.00 0.00 52 1009.2
20260507194910 52 23 2.6 7.0 0.00 0.00 0.00 52 1009.1
20260507193908 52 82 3.5 7.0 0.00 0.00 0.00 52 1009.4
20260507192908 52 14 2.6 7.8 0.00 0.00 0.00 52 1009.6
20260507191907 51 27 5.2 7.8 0.00 0.00 0.00 55 1009.5
20260507190905 51 258 5.2 7.0 0.00 0.00 0.00 53 1009.6
20260507185902 52 11 4.3 7.8 0.00 0.00 0.00 53 1009.6
20260507184901 54 328 2.6 5.2 0.00 0.00 0.00 51 1009.7
20260507183901 53 23 0.9 4.3 0.00 0.00 0.00 54 1009.7
20260507182856 53 47 8.7 10.4 0.00 0.00 0.00 49 1009.7
20260507181854 53 328 5.2 10.4 0.00 0.00 0.00 52 1009.9
20260507180853 54 348 0.9 6.1 0.00 0.00 0.00 53 1009.9
20260507175851 53 287 3.5 9.6 0.00 0.00 0.00 47 1010.0
20260507174846 52 75 7.8 9.6 0.00 0.00 0.00 53 1010.4
20260507173846 51 301 5.2 7.8 0.00 0.00 0.00 55 1010.4
20260507172845 52 126 3.5 8.7 0.00 0.00 0.00 58 1010.6
20260507171844 52 152 0.0 7.8 0.00 0.00 0.00 55 1010.4
20260507170843 51 333 3.5 5.2 0.00 0.00 0.00 52 1010.7
20260507165841 51 293 3.5 5.2 0.00 0.00 0.00 54 1010.8
20260507164839 51 252 6.1 7.8 0.00 0.00 0.00 50 1010.7
20260507163839 52 298 2.6 5.2 0.00 0.00 0.00 50 1010.9
20260507162839 53 12 2.6 5.2 0.00 0.00 0.00 61 1011.1
20260507161837 51 61 2.6 5.2 0.00 0.00 0.00 56 1011.2
20260507160836 51 4 1.7 6.1 0.00 0.00 0.00 61 1011.2
20260507155834 49 315 1.7 7.8 0.00 0.00 0.00 59 1011.3
20260507154833 50 315 2.6 7.8 0.00 0.00 0.00 58 1011.5
20260507153833 49 354 5.2 9.6 0.00 0.00 0.00 55 1011.6
20260507152832 49 1 5.2 9.6 0.00 0.00 0.00 56 1011.7
20260507151830 51 308 5.2 9.6 0.00 0.00 0.00 57 1011.8
20260507150829 50 294 1.7 6.1 0.00 0.00 0.00 62 1011.9
20260507145828 50 352 2.6 7.8 0.00 0.00 0.00 54 1012.0
20260507144828 51 259 5.2 11.3 0.00 0.00 0.00 55 1012.0
20260507143827 48 18 6.1 7.0 0.00 0.00 0.00 60 1012.1
20260507142826 49 242 1.7 7.8 0.00 0.00 0.00 55 1012.0
20260507141826 50 337 0.9 5.2 0.00 0.00 0.00 58 1012.4
20260507140825 48 10 2.6 4.3 0.00 0.00 0.00 60 1012.3
20260507135820 48 304 3.5 3.5 0.00 0.00 0.00 60 1012.1
20260507134819 48 277 4.3 6.1 0.00 0.00 0.00 58 1012.3
20260507133817 47 5 2.6 5.2 0.00 0.00 0.00 54 1012.4
20260507132817 48 359 1.7 3.5 0.00 0.00 0.00 59 1012.1
20260507131817 46 336 2.6 3.5 0.00 0.00 0.00 65 1012.3
20260507130816 46 30 1.7 7.0 0.00 0.00 0.00 64 1012.1
20260507125812 45 11 1.7 5.2 0.00 0.00 0.00 67 1012.5
20260507124812 45 17 0.9 4.3 0.00 0.00 0.00 78 1012.5
20260507123807 44 252 1.7 5.2 0.00 0.00 0.00 78 1012.5
20260507122806 43 1 3.5 5.2 0.00 0.00 0.00 77 1012.5
20260507121804 43 9 2.6 3.5 0.00 0.00 0.00 78 1012.5
20260507120802 44 13 2.6 3.5 0.00 0.00 0.00 78 1012.5
20260507115800 42 0 1.7 3.5 0.00 0.00 0.00 79 1012.4
20260507114758 42 38 3.5 6.1 0.00 0.00 0.00 81 1012.4
20260507113753 41 30 3.5 5.2 0.00 0.00 0.00 81 1012.3
20260507112753 40 54 4.3 6.1 0.00 0.00 0.00 81 1012.5
20260507111748 40 28 3.5 5.2 0.00 0.00 0.00 84 1012.3
20260507110746 39 55 3.5 6.1 0.00 0.00 0.00 84 1012.3
20260507105746 40 52 4.3 5.2 0.00 0.00 0.00 84 1012.1
20260507104745 40 54 3.5 6.1 0.00 0.00 0.00 87 1011.8
20260507103743 39 73 4.3 7.0 0.00 0.00 0.00 88 1011.5
20260507102742 37 36 7.0 7.0 0.00 0.00 0.00 90 1012.0
20260507101741 36 63 5.2 6.1 0.00 0.00 0.00 91 1011.7
20260507100739 36 63 4.3 5.2 0.00 0.00 0.00 91 1011.4
20260507095735 36 68 4.3 6.1 0.00 0.00 0.00 91 1011.5
20260507094734 36 58 5.2 7.8 0.00 0.00 0.00 92 1011.7
20260507093734 37 48 7.0 7.8 0.00 0.00 0.00 90 1011.8
20260507092730 37 53 4.3 5.2 0.00 0.00 0.00 90 1011.7
20260507091728 37 54 5.2 6.1 0.00 0.00 0.00 90 1011.6
20260507090725 37 66 5.2 7.0 0.00 0.00 0.00 90 1011.5
20260507085725 38 77 3.5 5.2 0.00 0.00 0.00 89 1011.8
20260507084724 38 50 3.5 5.2 0.00 0.00 0.00 90 1011.7
20260507083724 38 59 4.3 5.2 0.00 0.00 0.00 90 1011.7
20260507082722 39 48 5.2 7.8 0.00 0.00 0.00 90 1011.7
20260507081720 39 38 6.1 7.0 0.00 0.00 0.00 90 1011.8
20260507080719 40 43 3.5 7.0 0.00 0.00 0.00 89 1011.7
20260507075716 40 32 4.3 7.0 0.00 0.00 0.00 92 1011.7
20260507074715 41 51 4.3 5.2 0.00 0.00 0.00 94 1011.6